Ellensburg, WA

4:19 PM PDT on April 26, 2018 (GMT -0700)
Bowers

Weather History for KELN - June, 2013

Change the Weather History Date:

Sunday, June 23, 2013

  Actual Average (KYKM) Record (KYKM)
Temperature  
Mean Temperature 64 °F -  
Max Temperature 73 °F 80 °F 105 °F (1992)
Min Temperature 55 °F 50 °F 38 °F (2003)
Degree Days  
Heating Degree Days 1    
Growing Degree Days 14 (Base 50)    
Moisture  
Dew Point 49 °F    
Average Humidity 58    
Maximum Humidity 81    
Minimum Humidity 38    
Precipitation  
Precipitation 0.03 in - - ()
Sea Level Pressure  
Sea Level Pressure 29.75 in    
Wind  
Wind Speed 3 mph (SSW)    
Max Wind Speed 7 mph    
Max Gust Speed -    
Visibility 10 miles    
Events Rain    
Averages and records for this station are not official NWS values.
T = Trace of Precipitation, MM = Missing Value Source: NWS Daily Summary

Daily Weather History Graph

Daily Weather History Graph

Search for Another Location

Airport or City:

Astronomy

Jun. 23, 2013 Rise Set
Actual Time 5:07 AM PDT 9:01 PM PDT
Civil Twilight 4:27 AM PDT 9:41 PM PDT
Nautical Twilight 3:32 AM PDT 10:35 PM PDT
Astronomical Twilight 2:10 AM PDT 11:58 PM PDT
Moon 9:11 PM PDT (6/23) 5:35 AM PDT (6/23)
Length of Visible Light 17h 13m
Length of Day
15h 53m
Full, 100% of the Moon is Illuminated
Jun 23
Full
Jun 29
Last Quarter
Jul 8
New
Jul 15
First Quarter
Jul 22
Full

Hourly Weather History & Observations

Time (PDT) Temp. Dew Point Humidity Pressure Visibility Wind Dir Wind Speed Gust Speed Precip Events Conditions
12:53 AM 57.9 °F 46.0 °F 65% 29.87 in 10.0 mi NNE 6.9 mph - N/A   Clear
1:53 AM 57.0 °F 46.9 °F 69% 29.86 in 10.0 mi Calm Calm - N/A   Clear
2:53 AM 57.0 °F 46.9 °F 69% 29.85 in 10.0 mi SE 3.5 mph - N/A   Overcast
3:53 AM 55.9 °F 46.9 °F 72% 29.84 in 10.0 mi Calm Calm - N/A   Clear
4:53 AM 57.0 °F 46.9 °F 69% 29.83 in 10.0 mi SSW 3.5 mph - N/A   Mostly Cloudy
5:53 AM 57.0 °F 48.0 °F 72% 29.83 in 10.0 mi Calm Calm - N/A   Overcast
6:53 AM 63.0 °F 46.9 °F 56% 29.82 in 10.0 mi Calm Calm - N/A   Clear
7:53 AM 64.9 °F 46.9 °F 52% 29.81 in 10.0 mi South 3.5 mph - N/A   Clear
8:53 AM 69.1 °F 46.0 °F 44% 29.80 in 10.0 mi South 3.5 mph - N/A   Overcast
9:53 AM 72.0 °F 48.0 °F 43% 29.78 in 10.0 mi South 4.6 mph - N/A   Overcast
10:53 AM 73.0 °F 46.0 °F 38% 29.77 in 10.0 mi SSW 6.9 mph - 0.00 in   Overcast
11:53 AM 73.0 °F 46.0 °F 38% 29.78 in 10.0 mi SSE 4.6 mph - 0.00 in Rain Light Rain
12:53 PM 73.0 °F 46.9 °F 39% 29.76 in 10.0 mi South 6.9 mph - 0.00 in   Overcast
1:53 PM 72.0 °F 46.9 °F 41% 29.75 in 10.0 mi South 6.9 mph - 0.00 in   Overcast
2:53 PM 70.0 °F 50.0 °F 49% 29.74 in 10.0 mi SE 4.6 mph - 0.00 in Rain Light Rain
3:53 PM 72.0 °F 46.9 °F 41% 29.72 in 10.0 mi Calm Calm - 0.00 in   Overcast
4:53 PM 70.0 °F 48.9 °F 47% 29.70 in 10.0 mi Calm Calm - N/A   Overcast
5:53 PM 71.1 °F 48.9 °F 45% 29.67 in 10.0 mi West 5.8 mph - 0.00 in Rain Light Rain
6:53 PM 68.0 °F 51.1 °F 55% 29.66 in 10.0 mi West 5.8 mph - 0.00 in   Overcast
7:53 PM 64.9 °F 54.0 °F 68% 29.66 in 10.0 mi WSW 5.8 mph - 0.01 in Rain Light Rain
8:53 PM 63.0 °F 55.0 °F 75% 29.65 in 10.0 mi WSW 3.5 mph - 0.00 in Rain Light Rain
9:53 PM 62.1 °F 55.9 °F 80% 29.65 in 10.0 mi Calm Calm - 0.00 in Rain Light Rain
10:53 PM 61.0 °F 55.0 °F 81% 29.65 in 7.0 mi Calm Calm - 0.02 in Rain Light Rain
11:53 PM 61.0 °F 55.0 °F 81% 29.64 in 10.0 mi Calm Calm - 0.00 in   Overcast